NOAA 16 DEB, 42371

Orbit data source: Space-Track

NOAA 16 DEB, 42371 is space debris in SSO originally from a launch on Thu, 21 Sep 2000 UTC launched from the Air Force Western Test Range (AFWTR). Debris objects in space refer to the collection of defunct objects orbiting the Earth. Examples of debris include non-operational satellites, rocket bodies, and fragments generated from explosions, collisions, or faulty payload assembly.

Loading next visibility...
Identifier
42371, 2000-055RP
Orbit
SSO
Country
Flag of USUS
Related business
Manufacturer
Unknown
Mission
Spacecraft
Bus & Motor
Unknown
Mass
Unknown
Launch date (UTC)
2000-09-21 (26 years ago)
Launch vehicle
Unknown
Launch site
Air Force Western Test Range (AFWTR)
Object type
Payload
Rocket body
Debris
Shape & HBR
Unknown shape, 0.1 m
Radar Cross Section
Small (<0.1 m²)

Expand to show TLE details & history
Last TLE update: 3 days ago

TLE from 3 days ago
0 NOAA 16 DEB
1 42371U 00055RP  26170.54979393  .00010100  00000-0  20217-2 0  9998
2 42371  99.0700 104.2340 0033213  59.4175 301.0292 14.61676164542922
Epoch: 2026-06-19T13:11Z
TLE epoch observation values (Epoch: 2026-06-19T13:11:42.195Z)
Latitude
-0.0001°
Longitude
-1.46896°
Altitude
678.684 km
Speed
7.524 km/s
True Right ascension
06h 56m 56s
True Declination
0° 00' 00"
Sunlit
Object was in daylight at epoch
Visualization orbit readout
Latitude
Unknown
Longitude
Unknown
Altitude
Unknown
Speed
Unknown
Apparent Right ascension
Unknown
Apparent Declination
Unknown
Sunlit
N/A
Visualization observer readout
Local Sidereal Time
21:36:21
Azimuth
Unknown
Elevation
Unknown
Doppler factor
Unknown
Orbital elements
Apogee altitude
708.346 km
Perigee altitude
661.43 km
Semi-major axis
7,063.025 km
Eccentricity
0.00332
Inclination
99.07°
RAAN
104.234°
Arg. of periapsis
59.4175°
True anomaly
300.70237°
Mean anomaly
301.0292°
Eccentric anomaly
300.86586°
Mean motion
3.65643 °/min
Orbital period
98.46 mins
BSTAR
0.0020217
Loading maneuver chart data...
Computing Atmospheric mass density...
Loading historical data...
Loading historical data...
Loading historical data...
Loading historical data...
Loading historical data...
Loading historical data...
Loading historical data...

Documentation

Showing up to 5 results
|